Theta_e
318 318 319 321 322 323 324 324 325 326 327 327 328 328 328 328 328 328 327 327 327 327 326 326 326 326 326 326 327 327 327 327 327 327 326 324 324 324 324 325 325 324 324 324 325 326 325 324 324 324 324 324 324 322 320 318 316 316 315 314 312 310 304 299 296 294 294 296 296 296 295 295 295 295 294 293 291 290 289 288 288 287 287 287 287
311 312 313 314 315 317 319 321 323 324 325 326 326 327 327 326 326 326 326 326 326 326 326 326 326 326 326 326 326 326 326 327 327 327 325 325 325 324 324 325 324 324 323 323 324 324 324 324 324 324 323 323 322 321 318 316 315 314 312 311 311 309 306 303 299 295 294 295 295 295 295 295 294 294 293 292 291 289 288 288 288 287 287 287 286
310 310 312 313 314 317 319 321 322 324 324 325 325 325 325 325 325 325 325 325 325 325 325 325 326 326 326 326 326 326 327 327 327 326 326 326 325 324 323 324 324 324 324 324 324 323 322 323 323 324 323 321 320 319 317 314 313 312 312 311 310 309 309 307 301 296 294 294 295 295 294 294 294 293 292 291 290 289 288 288 287 287 287 287 286
311 311 312 313 315 317 319 321 322 322 323 323 323 323 323 323 323 323 324 324 324 324 324 325 325 325 325 325 325 325 324 324 324 324 325 325 324 322 322 323 324 324 324 324 324 323 322 322 322 323 321 319 318 318 315 313 313 312 312 311 309 309 309 307 302 298 295 293 293 294 294 293 292 291 291 290 289 289 288 288 287 287 287 287 286
312 312 313 313 314 316 317 319 320 320 321 321 321 322 321 322 321 321 321 322 322 322 322 322 322 322 323 323 323 323 322 321 321 322 323 323 323 322 322 322 322 322 322 322 322 322 322 322 321 321 319 317 317 317 315 314 313 312 312 311 309 308 308 305 300 297 295 293 293 293 292 292 291 291 290 290 289 288 288 287 287 287 286 286 286
312 313 314 314 314 315 315 317 318 318 319 319 319 319 319 319 319 318 318 318 319 319 319 320 320 320 320 320 320 320 320 319 319 320 321 321 321 321 320 320 320 319 319 320 319 319 320 320 319 318 317 316 317 318 316 315 313 312 311 309 308 306 305 303 298 295 294 293 293 292 291 291 291 290 290 290 289 288 287 287 287 287 286 286 286
310 312 313 314 314 315 315 316 316 316 316 316 315 315 315 314 314 313 313 313 314 315 315 316 316 316 317 317 318 318 319 319 319 319 319 319 319 318 318 318 318 317 317 317 317 317 317 317 316 315 314 315 316 317 316 314 312 310 309 307 306 304 303 300 296 293 292 292 291 291 291 291 290 290 289 289 288 287 287 286 286 287 286 285 285
310 310 311 312 313 313 313 313 313 313 313 312 312 311 310 310 309 308 309 309 309 310 311 312 313 313 314 315 316 317 317 318 318 318 318 318 318 317 316 316 316 316 316 315 315 315 316 315 314 314 314 313 313 313 313 314 312 309 308 306 304 303 301 297 293 291 291 290 290 290 290 290 289 289 288 288 287 287 287 286 286 286 286 285 285
310 310 310 311 311 311 311 312 311 311 310 310 309 308 307 306 306 306 306 306 306 307 307 309 310 311 312 313 313 314 315 316 316 316 317 316 316 315 314 314 314 314 314 313 313 313 314 314 313 313 313 313 312 313 313 312 310 308 307 305 303 301 298 293 291 290 289 288 288 288 288 289 288 288 287 287 287 287 287 286 286 286 285 284 284
311 311 311 311 311 311 311 311 309 308 307 306 305 304 305 305 306 307 307 307 308 308 308 308 308 309 310 311 312 312 313 314 314 315 315 314 313 313 312 312 312 312 312 312 312 312 312 313 312 312 312 312 313 313 311 310 308 307 306 304 302 300 296 291 289 289 288 288 287 287 287 287 287 287 287 287 287 287 287 286 286 285 284 283 284
311 311 311 310 310 310 310 308 306 304 303 303 303 304 305 306 307 308 308 309 310 310 310 310 310 310 310 310 311 311 311 312 313 314 314 314 313 313 312 311 310 310 310 310 311 311 311 310 310 310 311 311 311 310 309 307 306 304 303 302 301 300 296 291 289 288 288 287 287 287 286 286 287 287 287 287 287 286 286 286 285 284 283 282 283
311 311 310 309 309 308 307 305 303 302 302 303 304 305 306 306 307 308 308 310 310 309 311 311 312 312 312 311 312 312 312 313 313 314 313 313 313 312 312 311 309 308 308 308 308 308 308 308 308 309 309 309 309 308 306 304 303 301 301 300 299 297 295 291 289 289 288 288 287 286 286 286 286 287 287 287 286 286 285 285 285 284 283 282 282
310 309 308 308 307 305 303 302 301 301 302 304 304 306 306 306 307 308 308 309 310 310 311 311 312 313 313 312 312 312 312 312 312 312 312 311 311 311 310 309 308 307 307 306 306 306 306 306 307 307 308 308 307 306 304 301 299 298 298 296 294 293 291 290 289 289 289 288 288 287 288 287 287 287 287 287 286 286 285 284 284 284 283 283 283
309 308 307 306 305 303 301 301 301 301 303 304 305 306 306 306 307 308 308 308 309 310 310 310 311 312 312 312 312 311 311 311 310 310 309 308 308 307 307 307 307 307 306 305 305 304 305 305 306 306 306 306 305 303 300 298 297 296 294 292 291 290 289 289 288 288 288 288 288 288 288 288 287 288 287 287 286 286 285 285 285 284 284 283 283
307 307 306 305 304 302 301 301 301 302 303 304 305 305 306 306 306 307 306 307 307 308 309 309 310 310 311 311 311 311 311 310 310 310 308 307 305 305 304 304 304 304 304 304 304 303 303 303 304 304 304 303 302 299 297 295 294 293 292 290 289 289 288 288 288 288 288 287 287 287 287 287 287 287 287 286 286 286 285 285 285 284 283 283 282
306 306 306 305 303 302 301 301 301 302 303 304 304 305 306 306 306 306 306 306 306 307 307 308 308 309 309 309 309 309 310 310 310 309 308 306 305 304 303 302 302 302 302 302 302 301 301 301 301 301 301 300 299 297 295 293 292 291 290 289 289 288 288 288 288 287 287 287 287 286 286 286 286 286 286 286 286 285 285 284 283 283 282 281 280
307 306 306 305 303 302 301 301 301 302 303 303 303 304 305 305 305 306 307 306 306 307 307 307 307 307 307 307 307 307 307 308 307 307 306 305 305 304 303 302 301 301 301 301 300 299 299 299 299 298 298 298 297 295 293 292 290 289 288 288 288 288 288 287 287 287 287 286 286 286 286 286 286 285 285 285 285 285 284 283 283 282 281 280 279
306 306 306 304 303 302 301 301 301 302 302 303 303 303 304 305 305 306 306 306 306 307 307 307 306 306 305 304 304 304 305 305 304 304 304 304 303 303 302 301 301 301 301 300 299 299 299 298 297 297 296 296 294 293 291 290 289 288 288 287 287 287 287 287 287 286 286 286 286 286 285 285 285 285 284 284 284 284 284 283 283 282 280 279 278
307 306 306 304 302 302 301 300 301 301 302 302 302 303 304 305 305 306 305 304 305 305 306 305 305 305 304 303 302 302 303 303 303 303 303 302 302 301 300 300 300 300 299 299 298 298 298 298 298 297 295 293 291 290 289 289 288 288 288 287 287 287 287 287 286 286 286 286 286 285 285 285 284 284 283 283 283 283 283 283 282 282 281 280 279
307 306 305 303 302 301 301 300 300 301 301 301 301 302 304 304 304 305 304 304 304 304 304 304 304 303 303 303 302 301 301 301 301 301 301 301 300 300 299 299 299 298 297 296 296 296 296 296 296 295 294 292 290 289 288 288 288 287 287 287 286 287 287 286 285 285 285 285 285 284 284 284 283 283 282 282 282 282 282 282 282 282 281 280 279
305 304 303 303 302 301 300 300 300 300 301 301 301 302 303 303 304 304 304 303 303 303 303 303 303 302 302 302 301 300 300 300 299 299 299 299 298 298 298 298 297 295 294 294 294 294 294 294 294 293 292 291 290 289 288 287 287 286 286 286 286 286 286 285 285 284 284 284 284 283 283 283 283 282 282 282 282 282 282 282 282 282 281 281 280
304 304 304 303 302 300 299 299 299 300 300 301 301 302 302 302 303 303 303 302 302 302 301 301 301 301 300 300 300 299 299 298 298 297 297 296 296 296 296 295 294 293 293 292 293 293 293 292 291 291 290 289 288 288 287 287 286 286 286 286 285 285 285 284 284 283 283 283 283 283 282 282 282 282 282 282 282 282 282 281 281 281 281 281 280
304 304 304 303 301 299 298 298 299 299 299 300 300 301 301 301 301 301 301 301 301 300 300 299 299 299 299 299 298 298 298 297 297 296 295 294 294 293 293 292 291 291 291 291 291 291 290 290 289 288 288 287 287 286 286 286 285 285 285 285 285 285 285 284 283 283 283 283 282 282 282 282 282 282 282 282 282 282 282 281 280 280 280 280 280
303 303 303 301 299 298 298 298 299 299 299 299 300 300 300 300 300 300 300 300 300 299 299 298 298 298 298 297 297 296 296 296 296 295 294 293 292 291 291 290 290 289 289 289 289 289 289 288 288 287 286 286 286 286 285 285 285 285 285 285 285 285 285 284 284 283 283 282 282 282 282 282 282 282 282 282 281 281 280 280 280 279 279 279 279
302 302 300 298 297 298 297 298 298 298 299 299 299 300 299 299 299 299 299 299 299 298 298 297 297 297 296 295 295 295 294 294 294 293 292 292 291 290 290 289 289 288 288 288 288 288 288 287 287 286 286 286 285 285 285 284 284 284 284 285 285 286 285 285 284 283 282 282 282 281 281 282 282 282 282 281 280 279 279 279 279 278 278 278 278
300 299 297 297 297 297 297 298 298 298 298 298 299 299 299 298 298 298 297 298 298 297 297 296 295 295 294 293 293 293 293 292 292 292 291 291 290 289 289 288 288 288 288 288 287 287 287 287 287 286 286 285 285 285 285 285 284 284 284 284 285 286 286 285 284 284 283 282 282 281 282 282 281 281 280 280 279 279 279 279 278 278 278 278 277
299 297 296 297 296 296 297 297 297 297 297 297 298 298 298 298 298 297 297 296 296 296 295 294 293 292 291 292 292 292 291 291 290 290 289 289 288 288 288 287 287 287 287 287 287 286 286 286 286 286 285 285 285 284 284 284 284 284 283 284 284 285 285 285 285 284 283 283 283 282 282 281 280 280 279 279 278 278 278 278 278 278 278 277 276
297 296 296 296 295 296 296 295 295 296 295 296 297 297 297 297 297 296 296 295 294 293 293 292 291 290 290 291 290 290 290 289 288 288 288 287 287 287 286 286 286 286 286 286 286 286 286 286 286 286 285 285 285 284 284 284 283 283 283 283 283 284 284 284 284 284 284 283 283 282 281 281 280 279 279 278 278 278 277 277 277 277 277 276 275
296 295 295 294 294 294 294 294 294 294 293 295 296 296 296 296 295 295 294 293 292 292 291 290 290 290 290 290 289 288 288 287 287 286 286 286 286 286 285 285 285 285 285 285 285 285 285 285 285 285 285 284 284 284 284 283 283 283 283 283 283 283 283 284 284 283 283 283 282 282 281 280 280 279 278 278 277 277 277 277 276 276 276 275 275
294 293 293 292 292 292 292 292 292 292 293 294 294 294 294 293 293 292 291 290 290 290 289 289 289 289 288 288 287 287 287 286 286 286 285 285 285 285 285 284 284 284 284 284 284 284 284 284 284 284 284 284 284 283 283 283 283 283 283 282 282 282 282 283 283 282 282 282 281 281 281 280 279 278 278 277 277 277 276 276 276 275 275 275 274
292 291 291 290 290 290 290 290 291 291 292 292 292 291 290 290 289 289 289 288 288 288 287 288 287 287 287 287 286 286 286 286 285 285 285 285 285 285 284 284 284 283 283 283 284 284 284 284 284 284 284 283 283 283 283 282 282 282 282 282 282 282 282 282 282 282 281 281 280 280 280 279 279 278 277 277 277 276 276 275 275 275 274 274 274
291 290 289 289 289 289 289 289 289 289 290 290 290 289 288 286 286 286 286 287 286 286 286 286 286 286 286 286 286 285 285 285 285 285 285 285 285 285 284 283 283 283 283 284 284 284 284 284 284 283 283 283 283 283 282 282 282 282 282 281 281 281 281 281 281 281 280 280 279 279 279 278 278 277 277 277 276 275 275 275 275 274 274 274 274
291 289 288 287 287 287 287 287 287 287 288 288 288 287 286 285 284 284 284 284 284 285 285 285 285 285 285 285 285 285 285 285 285 285 285 285 284 284 284 283 283 283 283 284 284 284 284 284 284 283 283 283 283 282 282 282 282 281 281 281 281 281 281 281 280 280 280 279 279 278 278 278 277 277 276 276 276 275 275 274 274 274 274 273 273
292 290 289 288 287 286 286 286 286 287 288 288 287 286 286 285 284 284 283 283 283 284 284 284 284 285 285 285 285 285 285 285 284 284 284 284 284 283 283 283 283 283 283 284 283 283 284 283 283 283 282 282 282 282 281 281 281 281 281 281 281 281 281 280 280 279 279 279 279 278 278 278 277 276 276 276 275 275 274 274 274 274 273 273 273
291 290 289 288 288 287 287 287 287 287 288 287 287 287 286 286 286 285 284 284 283 283 283 283 284 284 284 284 284 284 283 283 283 283 283 282 283 283 283 283 283 283 283 283 283 282 283 282 282 282 281 281 281 281 281 281 281 281 281 281 281 280 280 280 280 279 279 279 278 278 278 277 277 276 276 275 275 274 274 274 273 273 273 273 273
290 289 288 288 287 287 287 288 288 288 287 287 287 287 286 286 286 286 285 285 284 283 282 282 283 283 283 283 283 283 283 282 282 282 282 282 282 282 282 282 282 281 281 281 281 281 281 281 281 281 280 281 280 280 280 280 280 280 280 280 280 280 280 280 280 280 279 279 279 278 278 277 277 277 276 275 274 274 274 273 273 273 273 273 273
289 288 287 287 287 287 287 287 287 287 286 286 286 286 285 285 285 285 285 284 283 283 282 281 282 282 282 282 282 282 282 282 282 282 282 281 281 281 281 280 279 279 279 279 279 279 279 278 279 279 279 279 279 280 280 280 280 280 280 280 280 280 280 280 280 280 279 279 279 278 278 277 277 277 275 274 274 274 273 273 273 273 273 273 273
289 288 287 287 287 287 286 286 285 285 285 285 284 284 284 284 284 284 283 282 282 281 281 280 280 280 280 280 281 281 281 281 281 280 280 280 279 279 278 278 278 277 277 277 277 277 276 276 276 277 277 277 278 278 278 279 279 279 279 279 279 279 279 279 279 279 279 278 278 278 277 277 277 276 275 274 274 274 273 273 273 272 273 273 273
287 287 287 287 286 286 285 284 284 284 283 283 283 283 283 282 282 282 281 281 280 280 279 279 279 279 278 278 279 279 279 279 279 278 277 277 277 276 276 276 276 276 275 275 275 275 275 275 274 274 275 275 275 275 275 276 276 276 277 277 277 277 277 278 277 277 277 277 277 277 277 276 276 276 275 274 274 274 273 273 273 272 272 272 272
285 285 285 285 285 284 284 284 283 283 282 282 282 282 282 281 281 280 280 279 279 278 278 277 277 277 277 277 277 278 278 277 276 276 275 275 275 275 274 274 274 274 273 273 273 273 273 273 273 273 273 272 272 273 272 273 273 273 274 274 275 275 275 276 276 276 276 276 276 276 276 276 276 275 274 274 274 273 273 273 272 272 272 272 272
285 284 283 284 284 283 282 282 282 282 281 281 281 281 281 280 280 280 279 278 277 277 276 276 275 275 275 275 276 276 276 275 275 274 274 273 273 273 273 272 272 272 272 272 271 271 271 271 271 271 271 271 271 271 271 271 271 271 271 272 273 273 274 274 274 275 275 275 275 275 275 275 275 274 274 274 273 273 273 272 272 272 272 272 272
283 283 282 282 282 281 281 280 280 280 280 280 280 280 280 279 279 279 278 278 277 276 275 274 274 274 274 274 274 274 274 274 274 273 273 273 272 272 272 271 271 271 270 270 270 270 270 270 270 270 270 269 269 269 269 269 269 269 269 270 270 271 271 271 272 272 273 273 273 274 274 274 274 274 273 273 273 272 272 272 272 271 271 271 271
281 281 280 280 280 280 279 279 279 279 279 279 279 279 278 278 278 278 277 276 276 275 275 274 273 273 273 273 274 274 273 273 273 272 272 272 271 271 271 270 270 269 269 269 269 269 269 269 269 268 268 268 268 268 268 268 268 268 268 268 268 268 268 269 269 270 271 271 271 272 272 272 273 273 273 272 272 272 272 271 271 271 271 271 271
279 279 278 278 278 278 278 278 278 278 278 278 277 277 277 277 277 276 276 275 274 274 274 273 273 273 272 272 273 273 272 272 272 271 271 270 270 270 269 269 269 268 269 269 268 268 268 268 268 268 267 267 267 267 267 267 267 266 266 266 266 266 266 267 267 267 268 268 269 270 270 271 271 272 272 272 272 272 271 271 271 271 270 270 270
278 278 278 278 277 277 277 277 277 277 277 277 276 275 275 275 275 275 274 274 273 273 272 272 272 272 272 271 271 271 271 271 270 270 269 269 269 268 268 268 268 268 268 268 268 268 268 268 267 267 267 267 267 267 267 267 267 266 266 266 265 265 265 265 265 265 266 266 266 267 268 269 270 270 271 271 271 271 271 271 271 270 270 270 270
278 278 277 277 276 276 276 276 276 276 276 276 275 274 273 273 273 273 273 272 272 272 272 271 271 271 271 270 270 270 269 269 269 268 268 268 267 267 267 267 267 267 268 268 267 267 268 267 267 266 266 266 266 267 267 267 267 267 266 266 266 265 265 265 265 265 265 265 265 266 266 267 268 269 269 270 270 270 270 270 270 270 270 269 269
277 277 277 277 276 276 275 275 275 275 274 274 274 273 272 272 272 272 272 272 272 271 271 270 270 270 270 269 269 269 268 268 268 267 267 267 267 267 267 267 267 267 267 267 267 267 267 267 266 266 266 266 266 267 267 267 267 267 267 267 266 266 266 265 265 265 265 265 265 265 265 266 267 267 268 268 269 269 269 269 269 269 269 269 269
278 277 277 277 276 276 275 275 274 274 274 273 273 272 272 272 272 272 271 271 270 270 270 269 269 269 268 268 268 268 268 267 267 267 266 266 266 266 266 267 267 267 267 267 267 267 266 266 266 266 265 265 266 266 267 267 267 267 267 267 266 266 266 264 264 264 264 264 264 264 264 265 265 266 266 267 268 268 268 269 269 269 268 268 268
277 277 277 276 276 275 275 274 274 274 274 273 273 272 272 271 271 270 270 269 269 269 269 268 268 267 267 267 267 267 267 267 267 266 266 266 266 266 266 266 266 266 267 267 267 266 266 266 266 265 265 266 266 266 266 267 267 267 266 267 267 266 264 262 262 262 263 263 264 264 264 264 264 265 265 266 267 267 268 268 268 268 268 268 268
276 276 276 275 275 274 274 274 274 273 273 272 272 271 271 270 270 269 269 268 268 267 267 267 266 266 266 266 266 266 266 266 266 266 266 266 266 266 266 266 266 266 266 266 266 266 266 266 266 266 266 266 266 266 266 267 266 266 266 267 266 264 263 263 263 264 263 263 263 263 263 264 264 264 264 265 266 266 267 267 267 267 267 267 267
275 275 274 274 274 274 273 273 273 272 271 271 271 270 270 269 268 268 267 267 266 266 266 266 265 265 265 265 266 266 266 265 265 265 265 265 265 265 266 266 266 266 266 266 266 266 266 266 266 266 266 266 266 266 266 266 266 266 266 266 265 264 264 264 263 263 262 262 263 263 263 263 263 263 264 264 265 265 266 266 267 267 267 267 267
Wind_Speed
24 26 27 27 27 26 25 25 24 24 24 24 24 24 23 23 23 23 23 22 22 21 22 22 22 22 23 24 24 25 26 26 26 26 27 28 27 26 27 29 30 30 30 31 33 34 33 32 32 32 31 31 32 33 32 30 31 34 35 31 29 30 28 23 14 8 12 19 23 27 27 26 28 29 28 24 21 18 16 15 16 16 17 16 15
24 24 24 24 24 23 22 21 21 21 21 21 22 21 21 21 21 21 20 20 20 20 20 20 20 20 20 21 23 24 26 26 26 26 27 28 27 26 26 28 31 31 29 29 31 33 33 32 32 31 31 31 31 30 29 28 29 31 31 28 28 30 28 25 21 15 13 18 22 25 26 26 28 28 28 25 20 18 16 16 16 16 17 17 15
21 21 20 20 20 20 19 19 19 20 20 20 20 20 20 20 20 20 19 19 18 18 18 18 18 18 18 19 22 24 25 25 24 24 25 24 24 26 28 29 30 30 30 30 31 31 31 31 32 31 31 30 29 27 27 27 29 29 29 29 29 29 28 27 25 22 19 20 23 26 26 27 28 27 25 23 19 18 17 17 17 17 17 16 16
18 18 19 19 19 19 19 19 20 20 20 20 20 20 20 20 20 20 19 19 19 18 18 17 17 17 17 18 19 20 20 20 20 20 22 23 24 26 27 27 29 29 30 31 32 32 32 32 32 32 32 30 27 27 27 28 30 30 29 29 29 28 27 27 28 27 24 22 24 27 28 28 27 25 23 21 19 18 18 18 18 18 17 17 17
17 17 18 19 20 20 20 20 21 21 21 21 21 21 21 21 21 21 20 20 20 19 19 18 18 18 19 19 20 20 19 19 19 19 21 23 25 26 25 26 28 28 29 31 32 32 32 32 32 31 32 30 28 27 29 31 31 31 31 31 30 28 26 27 29 29 26 25 25 26 26 26 25 23 22 21 20 19 18 19 19 18 18 18 18
19 18 19 19 20 20 21 21 21 21 21 21 21 21 21 22 22 21 21 21 21 20 19 19 20 20 20 21 21 21 20 20 19 19 20 21 22 23 23 24 25 25 26 29 30 31 31 31 30 31 32 32 30 30 31 33 32 31 31 31 29 27 26 27 30 29 27 25 24 24 24 24 23 21 21 21 20 19 19 19 19 20 19 19 19
20 21 21 21 21 21 21 21 21 21 21 21 21 21 21 21 21 20 20 19 19 19 19 19 19 20 20 19 19 18 18 18 17 16 17 18 19 18 18 20 22 22 24 26 27 28 29 29 28 29 31 31 31 31 31 31 30 30 30 29 27 26 26 28 29 28 25 23 21 21 22 23 22 21 20 20 19 20 21 20 20 21 21 20 21
21 21 22 22 22 22 21 21 21 21 21 21 20 19 18 17 17 18 18 17 17 17 17 17 17 16 17 16 16 15 15 15 15 15 15 16 17 16 16 17 19 20 21 24 25 25 26 27 27 28 29 29 28 27 27 28 28 29 29 28 27 26 27 28 28 27 24 22 19 19 20 21 22 21 19 18 19 22 24 23 23 23 21 21 21
22 22 22 23 22 22 21 21 21 20 20 19 17 14 12 10 9 10 11 11 11 12 12 13 14 15 15 15 15 14 14 13 14 14 14 14 13 14 14 15 16 18 20 21 22 23 24 25 26 27 28 27 26 26 27 28 28 29 29 28 27 27 28 29 29 27 25 22 20 19 20 21 23 23 22 24 26 27 25 24 24 23 21 20 20
24 24 24 23 22 22 21 20 18 16 15 14 12 10 9 7 6 5 5 5 5 6 7 8 10 10 11 12 14 14 14 13 13 12 12 11 11 11 12 13 14 16 18 19 21 22 23 24 25 26 27 27 28 28 28 28 28 29 29 29 29 30 32 32 32 30 28 25 24 23 22 23 26 28 29 30 30 27 24 23 23 22 19 18 18
24 24 24 23 22 21 19 17 15 13 12 12 10 9 9 8 8 8 7 6 6 7 7 8 9 9 9 9 11 13 13 13 12 12 11 10 11 11 12 12 13 15 16 18 19 21 22 23 24 25 26 27 27 27 26 27 28 29 29 29 29 32 35 36 35 33 30 27 26 26 25 25 28 31 31 29 28 26 25 24 23 21 18 15 13
25 25 24 23 21 20 18 16 15 14 13 12 11 11 10 10 10 9 9 9 9 9 9 9 9 10 10 10 11 12 11 11 12 13 12 12 12 12 12 12 13 14 15 17 18 20 21 22 23 24 25 24 23 23 25 26 27 27 27 28 28 31 35 36 35 32 30 28 27 27 28 28 28 30 31 29 28 27 25 23 22 21 19 17 15
27 26 25 23 21 20 18 16 16 15 14 13 13 12 12 12 11 11 11 11 10 10 10 10 9 9 10 10 11 11 10 9 10 10 11 11 11 11 10 10 11 13 15 16 18 19 20 21 22 22 22 21 21 23 24 24 24 24 25 26 27 29 32 33 32 29 29 30 30 31 32 30 28 29 30 30 28 26 25 24 23 22 21 21 20
27 26 25 23 22 20 19 18 17 16 15 15 14 14 14 13 13 13 12 13 12 12 11 11 10 8 8 8 8 8 7 6 6 6 7 7 8 8 9 9 10 12 14 15 16 18 19 20 21 21 20 20 21 22 22 22 23 23 24 25 27 28 29 30 31 30 29 29 29 30 31 29 27 27 27 26 26 25 24 24 23 23 22 22 20
27 26 25 24 23 22 21 20 19 17 17 17 16 16 15 15 15 14 13 13 13 13 12 11 11 10 8 8 8 8 7 6 5 5 5 5 5 6 7 8 10 11 13 14 15 17 18 18 19 20 20 20 21 20 20 21 22 23 25 26 27 28 29 30 31 32 31 29 27 27 26 26 25 25 23 21 22 23 23 21 20 19 20 19 19
26 25 25 25 25 24 23 22 21 20 19 19 18 18 18 17 16 15 14 13 13 12 12 11 11 10 9 9 9 9 8 7 6 5 3 3 3 4 6 7 9 11 12 13 15 16 17 17 18 19 20 20 20 19 19 20 22 24 25 26 27 28 30 30 30 31 30 29 27 26 25 24 23 23 22 20 20 22 21 19 17 17 17 16 18
27 27 27 27 27 26 25 24 23 22 22 21 21 21 19 18 17 16 16 16 15 13 12 11 10 9 9 9 8 8 7 7 6 5 3 2 2 3 4 6 8 10 11 12 14 15 16 17 17 18 19 20 20 19 19 20 21 23 24 25 26 28 30 30 29 30 30 29 28 27 26 25 23 22 22 21 21 22 21 21 21 19 18 15 15
29 29 30 29 28 28 27 26 25 25 25 24 23 22 21 20 19 18 17 17 16 14 13 12 11 10 9 8 7 6 6 5 5 4 3 3 3 3 4 6 7 9 10 11 13 14 15 16 16 17 18 19 18 18 19 20 22 23 25 25 25 27 29 29 28 29 28 27 27 26 25 24 23 22 22 22 22 23 24 24 23 21 21 18 15
32 32 32 30 29 29 28 27 26 27 27 26 25 24 23 21 20 19 18 16 15 15 13 12 11 9 8 7 6 5 5 4 4 4 4 4 4 4 5 6 8 9 10 11 12 13 14 14 15 16 17 17 17 17 18 21 22 24 25 24 25 28 29 28 27 27 27 26 26 25 24 23 23 23 23 23 23 25 25 25 24 23 22 22 18
34 33 31 29 29 29 29 28 27 28 28 26 25 24 23 22 21 20 18 16 15 14 12 11 9 8 7 6 6 5 4 3 4 4 4 4 4 5 6 7 8 9 10 11 12 13 13 14 14 15 15 15 16 17 18 21 22 24 25 25 27 29 28 26 25 25 25 26 26 25 24 24 25 25 25 24 24 24 24 24 25 25 23 23 21
32 31 29 29 29 29 29 29 28 29 28 26 25 24 23 23 22 21 19 17 15 14 13 11 9 8 7 6 5 4 4 4 4 4 3 4 4 5 6 6 7 8 9 11 12 13 13 14 14 14 14 15 16 17 18 20 21 23 25 26 27 28 27 25 24 22 22 23 24 25 25 26 27 27 27 26 26 26 27 27 27 27 26 25 24
30 29 29 28 29 29 29 29 28 28 27 26 25 24 23 22 21 20 19 18 16 14 12 11 9 7 7 6 5 5 4 4 4 3 3 3 3 4 5 5 6 8 10 11 12 12 13 13 13 13 14 15 16 17 18 19 20 22 24 24 25 26 26 25 23 21 20 21 23 25 27 27 29 30 30 30 30 30 30 30 30 30 29 29 27
29 29 29 29 29 29 29 28 28 27 26 26 26 25 23 22 21 20 19 17 16 14 12 11 10 8 8 7 6 5 5 4 4 3 3 3 3 3 4 5 6 8 10 11 11 11 12 12 13 13 13 14 16 17 18 18 19 21 22 23 23 24 25 25 23 21 21 21 23 27 29 30 31 32 33 33 33 33 32 31 31 31 30 29 28
29 30 30 29 29 29 28 28 27 27 27 27 26 25 24 23 21 20 18 17 16 15 14 12 11 10 8 7 6 5 5 4 4 4 3 2 3 3 3 4 5 7 9 10 10 11 12 13 13 13 13 13 14 16 17 18 18 19 20 21 22 22 23 24 23 22 22 23 25 28 30 30 32 33 34 34 32 31 30 29 29 30 30 29 27
31 31 30 29 30 29 28 28 28 27 28 28 27 27 26 24 23 21 19 18 17 16 15 13 12 10 9 8 6 5 5 4 4 3 2 2 2 2 2 3 4 6 8 8 9 11 12 13 14 14 13 13 13 14 15 17 17 18 19 20 21 22 23 23 23 23 24 25 27 28 29 30 31 32 31 30 28 27 27 27 27 28 28 27 27
32 31 29 29 30 30 29 29 28 28 28 28 28 28 27 26 24 23 21 20 19 17 16 14 13 11 10 9 7 5 5 4 3 3 2 2 2 1 2 2 3 4 6 7 9 10 11 13 14 14 14 13 13 14 14 15 16 17 18 19 20 22 24 24 24 24 26 27 28 29 30 30 29 28 27 26 26 26 25 25 26 27 27 27 27
31 30 29 29 30 30 30 29 29 28 28 28 27 27 27 26 25 23 23 21 20 18 17 16 15 13 11 9 7 6 5 3 3 2 2 2 1 1 2 3 3 4 5 6 8 9 10 11 12 13 14 14 14 15 15 15 16 17 18 19 20 23 25 26 26 27 28 29 29 29 30 28 26 25 25 24 25 25 24 24 25 26 26 26 25
30 29 30 29 30 30 30 30 29 29 29 29 28 27 27 26 24 23 23 22 21 20 19 17 15 13 12 10 7 6 4 2 1 1 1 2 2 3 3 4 4 4 5 5 6 7 9 10 11 12 13 13 14 15 16 17 17 18 19 19 20 22 23 24 26 27 29 29 29 29 28 26 25 25 24 24 24 24 23 23 24 25 24 23 23
28 29 29 29 29 29 29 29 29 29 29 29 27 26 25 24 23 21 20 19 17 16 16 15 13 11 9 8 6 5 3 1 1 2 2 3 3 4 4 4 4 4 4 5 6 7 8 9 10 11 12 12 14 15 16 17 18 18 19 19 20 21 22 23 25 27 28 29 29 29 28 27 27 26 24 24 25 24 23 23 23 24 23 22 24
27 27 28 28 28 28 28 28 28 28 28 28 26 23 21 19 17 17 16 14 12 10 10 11 10 9 8 6 4 3 2 2 3 4 4 4 5 5 5 4 4 4 3 5 7 8 8 9 10 11 11 12 14 15 17 17 18 19 19 19 20 20 22 23 25 27 28 28 28 28 28 27 27 26 25 25 25 24 23 23 23 24 24 24 25
28 28 28 28 28 29 28 29 29 28 28 28 26 24 20 16 13 12 13 13 11 10 10 9 8 7 6 5 4 3 3 3 4 5 5 6 6 6 6 5 5 4 3 5 7 8 9 10 12 12 12 13 15 16 17 18 18 20 20 20 20 20 21 23 25 26 27 27 26 27 27 27 27 27 25 25 25 23 22 22 23 24 26 26 26
30 29 28 28 29 29 29 29 30 29 28 27 26 25 24 21 16 13 12 11 11 10 9 8 8 7 6 6 5 4 3 2 3 3 4 5 6 6 6 6 5 4 3 5 8 9 9 11 13 13 14 15 16 17 17 18 19 20 21 21 21 21 22 23 25 25 25 25 25 26 26 27 27 27 26 25 24 23 22 22 23 25 26 26 26
31 30 29 29 30 30 30 30 30 29 29 28 27 27 26 25 23 20 16 13 12 11 10 10 9 8 7 6 6 5 4 3 2 2 3 3 4 5 5 5 5 3 3 5 8 10 11 12 14 15 16 17 18 18 19 19 20 21 21 21 22 23 23 24 24 24 25 25 25 25 26 26 26 26 26 26 25 24 23 23 24 24 24 23 24
30 31 31 32 32 32 31 31 30 30 29 29 29 29 27 26 27 28 25 20 17 14 12 11 10 9 8 7 6 5 4 3 2 2 2 2 3 4 4 4 4 3 4 5 7 9 11 13 15 16 17 18 19 19 20 21 22 22 22 22 23 24 24 24 24 24 24 25 24 25 26 26 26 26 26 26 25 24 24 24 23 23 23 23 23
27 29 30 30 31 31 31 31 31 30 30 29 29 29 28 27 27 28 27 25 22 18 14 12 11 10 10 9 8 7 5 4 3 1 0 1 2 3 3 3 3 3 3 4 6 8 11 13 15 16 17 18 19 20 21 22 23 23 23 23 24 24 25 24 25 25 25 25 25 25 26 26 26 26 27 26 25 23 24 24 23 23 23 23 22
27 28 28 28 29 28 29 29 30 30 29 29 29 28 27 26 26 25 24 24 22 20 16 14 13 11 10 9 8 7 6 5 4 2 1 0 2 2 2 3 4 5 5 6 7 8 10 11 13 15 16 17 19 20 21 22 23 23 23 24 24 25 25 25 25 25 25 25 26 25 25 25 26 26 26 26 25 24 25 25 23 23 23 23 22
28 28 28 28 27 27 28 28 28 28 28 28 27 27 26 25 25 24 23 22 21 19 17 15 14 12 10 8 7 7 6 5 4 2 2 1 1 1 1 2 4 5 6 7 8 9 9 10 11 13 14 16 17 18 19 20 21 22 22 23 24 24 25 26 26 26 26 26 26 26 25 25 26 26 25 25 25 25 24 24 23 23 23 23 22
28 29 29 28 28 28 28 27 27 26 26 26 26 26 25 24 24 23 23 21 20 18 17 15 13 12 10 7 6 6 5 4 4 2 2 1 1 1 1 2 3 4 5 6 7 8 9 10 10 11 12 13 14 15 16 17 18 19 20 20 21 22 23 24 24 24 24 25 25 25 25 25 26 26 25 25 26 25 23 23 22 22 22 21 20
27 28 28 29 28 28 28 27 27 26 26 25 24 24 24 24 23 22 21 20 18 17 15 14 12 10 8 6 5 5 4 4 4 3 3 3 3 3 2 2 2 3 4 5 6 7 8 9 10 10 11 12 13 14 15 16 17 17 18 19 20 21 21 21 22 23 23 23 24 24 25 25 26 26 25 24 25 25 24 23 22 21 21 21 20
28 28 28 29 29 28 28 27 27 26 25 24 24 23 23 23 22 21 20 19 18 16 14 13 12 9 7 5 4 4 4 4 4 3 3 3 3 3 3 3 3 4 4 5 6 7 8 9 10 11 12 13 14 15 16 16 17 18 18 19 20 21 21 21 22 23 23 24 24 25 25 25 25 25 24 24 24 25 25 24 22 21 21 21 21
29 29 29 28 28 28 27 26 25 24 24 23 23 23 22 21 20 20 19 18 17 16 14 13 11 9 7 6 4 3 3 3 3 2 2 2 2 2 3 3 4 4 5 6 7 8 9 10 11 12 13 14 14 15 16 16 17 17 17 18 18 19 20 20 20 21 22 23 23 24 24 24 24 24 24 24 24 24 23 22 22 22 21 21 21
29 29 28 27 27 27 26 25 24 23 23 22 21 21 20 19 18 18 17 17 16 15 14 12 10 8 6 5 4 3 3 3 2 2 1 1 2 2 3 3 4 5 6 7 8 9 10 11 12 13 13 14 15 15 16 16 16 16 16 17 17 19 19 20 20 20 21 22 22 22 23 23 23 24 24 24 22 22 21 21 21 21 21 21 21
27 27 27 26 26 25 25 24 23 22 22 21 19 18 17 17 16 16 16 15 14 13 12 11 8 7 5 4 3 3 2 2 1 1 1 1 2 3 4 5 6 6 7 8 8 10 11 11 12 13 13 13 14 15 15 15 16 16 17 18 19 19 20 20 20 21 21 22 22 22 22 23 23 24 23 22 21 21 21 21 21 21 22 22 21
25 25 25 24 24 23 23 23 22 22 21 20 18 17 16 16 15 15 14 14 12 11 10 9 7 6 5 3 3 3 2 2 1 1 2 2 3 4 5 5 6 6 7 8 9 10 11 11 12 12 13 13 13 14 14 14 15 16 17 18 19 20 20 20 20 20 21 22 24 23 23 23 23 23 23 22 22 22 22 22 21 22 22 22 21
25 25 25 25 24 23 22 22 22 21 20 19 18 17 15 14 14 13 12 12 11 10 8 7 6 5 4 3 2 2 2 2 2 2 2 3 3 4 4 5 6 7 7 8 9 9 10 10 11 11 12 12 11 12 12 12 13 14 15 16 18 20 21 21 21 21 22 22 24 24 23 22 22 22 22 22 22 22 23 22 22 22 22 21 20
25 25 25 25 24 23 22 21 20 20 19 18 17 16 14 13 12 12 11 10 9 8 7 6 4 4 3 3 3 2 2 2 2 2 2 3 3 4 4 5 6 6 7 7 8 8 8 8 9 10 10 11 11 11 11 12 13 13 14 15 17 19 20 21 21 21 21 21 22 23 23 22 22 21 21 21 22 22 22 23 22 22 22 21 20
24 24 24 24 23 22 21 20 19 18 17 16 15 15 13 12 11 10 9 8 7 6 5 4 4 3 3 3 3 3 3 3 2 2 3 3 3 4 4 5 5 6 6 6 6 7 7 7 8 9 10 12 13 13 13 14 14 15 15 16 17 18 19 18 18 18 18 19 20 21 22 22 22 21 21 21 21 21 22 22 22 22 22 21 20
23 23 22 22 22 21 20 19 18 17 16 15 14 13 12 10 9 8 7 6 6 5 4 4 3 4 4 4 3 3 3 3 2 2 2 2 3 3 4 4 5 5 5 5 5 6 7 7 9 10 11 12 13 14 14 15 15 15 16 17 17 17 17 16 17 18 18 18 18 19 21 22 22 21 21 20 20 20 21 22 22 22 21 20 20
21 21 20 19 19 18 17 17 15 14 13 12 11 10 9 8 7 7 6 5 5 4 4 4 4 4 4 3 3 2 2 2 1 1 1 2 2 3 4 4 4 5 5 5 6 7 8 8 9 10 11 12 13 14 14 15 15 16 17 17 17 17 17 18 18 19 19 19 18 18 19 20 21 21 20 20 20 20 20 21 21 21 20 20 19
18 18 18 17 17 16 15 14 13 12 11 10 9 9 8 7 7 6 5 5 5 5 4 5 4 4 3 3 2 2 1 1 1 1 2 2 3 3 4 4 5 6 6 7 8 9 9 10 11 11 12 13 13 14 15 16 16 17 17 17 18 18 19 19 19 18 17 17 16 17 17 19 20 20 19 19 18 19 19 20 20 20 20 19 19
16 16 15 15 14 13 12 11 10 10 9 9 8 8 7 7 6 6 6 6 6 6 5 5 4 3 3 2 2 2 2 2 2 2 3 4 4 5 5 6 7 7 8 9 9 10 11 12 12 13 13 14 14 15 15 16 17 17 17 17 18 18 18 17 17 17 16 15 14 15 16 17 18 18 18 18 17 17 18 19 19 19 19 18 18
Wind_Direction
229 233 234 234 235 236 237 239 240 241 242 242 243 245 247 248 250 253 254 255 256 256 258 260 261 262 261 260 259 258 256 256 255 255 257 259 263 265 263 261 262 259 255 252 248 246 245 242 241 244 247 247 246 246 247 246 243 236 230 226 224 225 224 218 220 220 203 207 213 216 217 217 217 219 220 223 228 234 243 253 258 258 257 257 261
228 231 232 232 233 234 234 235 235 236 236 237 239 240 242 244 246 248 249 250 251 252 255 257 258 258 257 257 258 258 257 255 250 250 254 257 259 266 269 265 263 262 258 255 253 249 246 244 246 249 248 245 245 249 250 245 237 229 225 225 225 226 227 225 225 221 207 204 207 212 215 214 213 215 218 222 227 234 242 251 256 255 254 257 261
228 228 228 227 227 225 226 226 226 228 229 231 234 235 237 238 239 241 242 243 246 247 250 251 252 251 251 254 256 254 252 251 249 251 253 254 260 269 272 269 269 266 260 260 260 256 250 248 249 249 246 243 244 248 245 236 228 226 226 227 228 230 232 231 226 218 208 203 204 207 209 207 209 212 215 219 225 235 242 249 253 253 251 255 259
223 222 221 220 219 218 219 220 221 224 226 229 231 233 235 235 236 238 238 240 243 245 246 246 247 247 248 253 258 257 258 261 265 267 262 261 268 275 275 273 271 269 265 266 266 260 254 250 248 246 244 241 241 241 236 229 227 229 230 232 234 237 237 233 228 222 213 204 201 205 206 203 204 208 212 216 225 235 242 246 248 249 250 251 255
215 215 215 215 215 216 217 220 222 225 227 229 232 234 237 238 238 239 239 241 243 245 248 249 249 251 251 254 258 260 264 268 271 273 270 268 270 273 275 275 272 270 270 269 265 259 255 252 249 247 243 238 235 235 231 229 230 232 234 236 237 239 239 233 228 224 218 209 202 201 201 201 203 208 214 220 227 234 240 244 244 246 248 248 251
212 213 213 213 215 216 218 221 223 226 228 231 234 236 238 240 240 241 242 243 245 246 249 251 251 252 253 254 257 259 263 267 269 272 272 273 274 275 276 276 275 274 271 267 261 254 253 254 253 250 245 238 234 235 233 231 233 235 236 238 238 237 236 232 227 223 220 215 207 198 198 202 206 210 217 223 229 233 237 241 242 244 248 248 249
212 214 216 216 218 218 220 223 225 227 230 231 233 235 237 240 240 240 240 241 243 243 245 248 250 252 253 255 258 260 262 266 270 274 275 277 282 283 281 280 279 278 272 266 260 255 254 256 255 251 246 240 237 236 234 235 238 241 241 241 239 238 236 231 225 222 219 213 206 200 200 204 210 214 219 224 229 234 235 235 237 241 245 248 251
212 214 216 217 219 220 221 223 224 226 228 229 232 235 237 239 238 236 238 239 241 242 241 243 246 248 250 253 257 263 267 270 274 278 278 279 283 286 287 285 282 279 275 268 263 260 260 260 257 252 248 244 242 242 244 248 249 247 244 242 240 239 235 228 221 219 216 208 202 201 200 204 210 214 217 218 221 229 231 230 234 240 244 247 249
213 214 215 217 219 219 220 223 225 228 230 229 231 233 231 230 230 231 234 236 238 239 239 242 245 248 252 255 259 265 268 268 269 272 274 276 280 283 284 283 281 279 275 271 266 263 262 261 258 254 250 249 251 253 255 256 252 248 245 243 240 237 230 222 216 214 211 204 200 200 199 204 208 207 210 215 220 226 229 227 233 240 243 245 248
214 214 215 217 218 217 220 225 225 224 222 218 217 215 208 203 201 204 207 209 214 218 225 234 240 244 249 252 254 256 259 262 264 265 266 271 275 275 276 277 276 276 273 270 268 266 263 261 258 253 251 250 251 252 253 253 252 251 250 248 243 235 223 216 214 213 208 204 203 200 198 205 210 209 214 220 224 226 226 224 228 233 238 246 253
214 214 215 215 215 217 219 219 212 206 201 196 194 190 187 188 191 195 196 196 200 206 215 223 225 227 233 241 246 245 246 250 256 259 259 261 264 266 270 272 270 269 269 267 267 266 263 260 257 253 250 248 248 252 256 258 256 254 253 252 247 237 224 216 213 212 209 208 209 206 206 211 215 215 218 222 224 224 225 224 224 226 229 237 249
215 214 214 213 213 214 213 206 198 195 189 184 184 185 186 188 188 192 194 196 201 204 212 221 223 223 226 232 239 242 242 242 244 250 254 255 256 256 258 263 265 266 266 265 265 264 261 258 256 254 252 252 256 262 265 264 261 257 254 251 245 237 229 224 221 219 217 216 214 215 216 219 221 220 221 223 223 223 224 225 225 226 227 229 234
214 213 212 211 211 209 205 198 194 190 183 182 186 186 189 192 190 191 195 196 201 204 207 214 218 218 220 224 232 238 240 241 241 245 251 252 254 255 255 258 264 265 265 264 263 262 260 259 258 256 257 260 266 270 269 265 260 254 250 247 241 235 231 230 231 233 233 229 225 226 229 228 227 230 230 228 224 220 218 221 225 228 229 233 239
213 213 211 209 208 206 201 196 193 188 182 184 189 188 191 194 193 194 196 196 199 203 206 212 215 216 215 216 224 230 229 234 240 248 257 260 260 263 262 261 263 265 267 269 267 265 264 263 262 261 263 267 271 272 269 262 255 248 244 241 239 236 234 234 235 237 241 240 237 240 242 240 239 242 242 236 230 227 225 226 230 233 234 240 247
211 211 210 207 206 203 199 196 192 187 185 188 191 191 193 194 194 196 197 196 199 202 203 209 210 211 213 214 217 220 219 224 236 248 260 264 262 263 263 263 265 267 270 271 270 269 268 266 266 267 270 274 276 274 269 262 254 246 242 240 239 239 238 238 238 239 242 244 245 248 252 251 250 250 249 245 240 237 236 238 241 241 240 244 249
211 211 209 207 206 202 198 195 191 188 188 190 192 192 193 195 195 196 196 195 196 196 196 201 204 206 211 213 210 205 201 203 208 213 231 255 272 277 276 275 274 274 277 278 278 276 274 273 273 275 278 280 279 275 270 263 254 246 243 243 242 241 241 240 240 241 243 245 247 249 252 253 252 250 250 249 242 236 234 235 236 233 232 238 248
213 213 211 208 205 201 198 195 191 189 191 193 193 193 193 194 194 194 195 194 193 192 192 193 194 195 202 210 209 197 186 182 183 179 183 228 279 295 293 290 287 287 289 288 285 283 282 282 283 283 284 284 281 276 269 261 254 248 246 245 244 244 245 243 242 243 244 246 248 249 250 251 250 249 248 245 241 236 230 226 227 223 220 228 244
216 214 213 210 204 200 199 197 192 190 192 194 193 192 192 193 194 193 196 197 193 190 191 191 188 186 192 205 209 198 187 182 183 184 194 224 255 271 275 279 281 284 287 286 285 286 286 288 289 288 288 288 285 279 269 260 254 250 248 248 247 248 250 248 246 246 246 247 248 249 249 249 249 248 246 242 240 237 232 231 232 226 218 222 234
220 216 214 209 203 200 199 198 195 192 193 194 193 191 191 192 193 193 195 196 192 189 191 194 191 186 192 209 220 218 214 213 214 214 217 228 243 251 254 263 269 274 276 277 280 283 284 285 286 285 286 288 284 278 269 262 257 253 251 248 247 252 256 255 253 252 251 251 251 249 248 248 247 246 244 242 241 240 239 239 238 232 225 225 228
221 216 211 205 201 200 199 199 198 195 194 193 191 190 190 189 191 193 193 192 189 190 195 197 192 190 198 212 228 237 240 241 240 242 243 246 254 255 254 259 265 268 270 271 274 277 278 280 282 282 284 284 281 276 269 264 261 257 253 249 250 256 261 262 262 262 260 257 254 252 251 249 247 245 243 240 240 241 242 241 239 238 234 231 228
217 211 206 202 200 199 199 200 199 195 194 192 189 189 191 191 192 193 192 190 188 190 195 194 190 192 200 210 226 243 260 271 273 278 275 269 268 263 260 265 267 268 269 268 270 274 278 281 285 287 286 283 280 276 271 266 263 259 256 255 257 261 263 264 266 268 265 258 254 252 250 247 245 244 242 240 239 240 241 243 245 245 241 236 232
211 207 202 200 198 198 198 199 197 195 194 192 191 191 192 193 194 194 192 189 187 188 189 188 186 188 196 209 222 234 251 264 272 281 285 281 277 267 265 266 264 263 266 267 270 276 283 287 290 290 286 282 279 276 273 269 264 261 262 264 264 262 261 262 265 267 263 257 252 248 246 243 242 242 242 243 244 242 241 243 246 247 247 243 239
208 202 198 197 196 196 196 195 193 193 192 192 193 192 190 190 192 193 191 187 185 186 186 184 187 191 200 210 220 230 241 245 253 265 273 273 271 266 266 268 265 266 270 274 280 287 291 293 294 292 289 285 280 278 276 273 267 266 269 271 268 264 262 262 262 262 260 255 250 246 244 243 243 244 245 247 248 247 246 245 244 245 247 246 243
200 196 194 193 192 192 192 191 190 191 190 190 191 190 188 187 188 190 190 187 185 187 185 185 189 194 201 208 211 220 228 231 240 252 254 256 264 267 269 273 277 279 281 284 290 295 297 297 297 296 292 287 283 280 279 276 273 272 272 272 269 265 262 261 260 259 256 252 248 247 247 247 247 249 251 252 252 252 251 249 246 244 245 246 246
192 191 190 188 188 188 188 188 189 190 189 190 190 189 187 186 186 187 189 188 188 188 186 187 191 193 198 202 202 206 217 225 237 244 242 251 266 278 283 286 289 288 290 294 296 297 298 298 297 295 293 290 288 284 280 278 277 275 273 269 266 264 261 261 260 256 253 252 251 251 253 254 256 257 258 258 258 258 257 253 248 244 243 245 246
188 187 184 184 185 184 183 184 187 189 191 193 193 191 189 187 186 186 187 188 190 191 187 186 189 191 192 192 191 195 203 212 221 222 223 235 250 274 295 302 302 294 293 297 299 298 298 298 297 296 295 293 292 288 286 284 281 277 272 266 262 260 260 260 258 255 255 256 257 259 262 263 264 265 265 263 261 261 260 255 248 243 240 240 241
184 182 181 181 182 181 181 181 183 187 190 192 193 193 192 191 188 187 188 187 188 188 187 187 187 186 182 178 181 189 193 196 204 212 226 244 261 300 315 325 323 311 305 305 305 302 300 298 298 297 295 294 292 290 288 286 282 279 276 270 264 261 260 261 261 261 262 263 264 266 268 269 269 268 267 267 266 265 263 256 248 244 241 238 237
182 180 180 180 179 180 181 180 181 185 188 191 192 190 190 191 191 191 192 193 190 186 185 185 182 176 172 171 177 185 184 184 206 242 284 308 321 327 334 340 335 326 323 319 310 302 297 295 294 293 292 291 290 289 287 286 285 283 281 277 272 267 264 263 263 263 265 266 267 269 270 270 270 270 269 268 269 268 265 257 249 247 244 238 235
181 179 179 178 177 179 180 181 183 184 185 187 189 189 190 192 194 195 196 197 193 185 180 177 171 166 165 168 175 179 171 174 261 284 303 311 314 318 324 330 328 327 328 319 305 298 297 295 293 293 292 292 291 291 291 290 289 287 285 282 279 273 267 263 262 263 266 267 267 269 270 271 271 271 270 270 270 270 267 260 252 249 245 238 238
177 178 178 177 177 177 177 180 183 183 182 182 182 182 185 188 190 189 184 180 176 170 166 164 161 161 162 162 171 194 217 251 265 276 281 281 286 296 301 304 305 308 310 304 297 296 298 298 297 297 297 296 295 295 296 296 294 293 292 289 284 279 273 269 267 268 268 268 268 270 271 272 272 272 271 271 271 270 267 261 255 250 244 240 243
174 177 178 177 177 176 177 179 181 181 181 180 176 171 167 164 169 173 169 164 163 164 165 163 161 164 165 165 180 216 244 256 264 271 274 275 278 278 276 275 275 279 287 293 294 295 295 295 297 299 300 298 296 297 300 299 297 297 296 294 290 286 281 278 278 276 273 270 270 272 272 272 272 273 273 272 272 271 267 262 257 251 247 245 246
174 176 178 178 177 177 178 180 180 179 178 176 172 165 158 150 148 152 159 163 163 163 163 160 157 158 157 156 163 177 194 222 250 261 266 273 273 269 266 262 258 259 270 277 282 286 290 292 296 300 301 299 299 301 301 300 299 299 297 294 293 291 288 288 288 284 279 276 275 273 273 273 273 273 273 272 271 270 266 261 256 252 251 250 250
177 177 177 176 177 179 180 180 179 177 174 171 169 165 161 154 146 141 142 147 150 152 152 151 150 151 149 148 151 157 170 193 217 237 254 265 265 261 261 255 248 252 262 266 273 284 291 294 296 299 301 301 302 305 304 303 303 302 298 296 295 296 296 295 291 286 282 281 279 276 275 275 273 273 273 272 269 268 265 262 259 255 254 254 254
181 179 177 177 177 178 179 178 176 174 172 170 170 169 167 162 153 146 142 142 143 145 147 148 152 155 153 153 156 156 158 166 179 207 243 262 262 260 262 259 252 250 260 269 279 289 294 297 298 301 304 305 307 308 308 307 307 305 303 302 301 301 300 297 291 286 285 284 281 278 278 277 275 273 273 271 269 267 265 263 260 257 254 255 256
181 179 178 178 177 177 177 176 173 172 171 172 174 173 170 165 159 155 152 150 148 145 144 146 151 154 154 153 152 150 147 144 139 138 166 274 271 266 272 285 295 301 302 304 305 305 304 304 306 307 309 311 313 314 313 312 311 309 308 308 307 304 303 298 293 290 290 286 283 281 280 278 277 275 273 271 268 265 264 263 262 259 257 257 258
179 176 176 177 176 174 174 173 172 171 172 173 173 172 168 164 160 157 155 153 149 145 143 143 144 146 148 148 146 145 143 140 137 136 129 99 298 293 308 337 343 345 345 343 336 328 321 317 316 317 318 318 318 318 316 314 313 313 312 311 308 305 303 300 298 297 294 289 286 284 281 279 278 277 274 270 267 266 265 266 265 263 261 260 260
177 174 173 174 174 171 170 170 170 170 170 168 167 164 161 158 155 152 149 148 146 142 140 141 142 140 137 134 138 142 143 144 152 163 172 206 269 295 5 10 357 352 351 350 347 341 336 332 330 330 330 328 325 323 319 316 315 313 311 308 305 302 299 297 297 295 292 288 286 284 281 280 279 277 273 269 268 268 268 267 267 266 265 264 262
175 173 172 171 170 168 166 166 166 167 165 163 161 158 154 150 149 146 144 142 140 137 135 136 136 131 120 113 121 132 138 144 149 144 127 123 112 80 62 33 11 0 354 350 345 340 337 337 336 336 334 331 328 326 324 322 320 317 315 312 308 304 302 300 298 296 292 290 288 286 284 282 281 279 274 269 269 270 270 269 268 266 267 266 261
169 168 168 167 167 166 164 163 163 163 162 160 157 154 149 145 143 141 139 136 134 132 131 129 124 117 112 110 114 119 122 121 111 94 81 75 68 60 51 40 29 15 358 348 343 338 336 336 336 333 330 327 325 323 323 322 321 320 318 315 311 309 307 305 304 302 300 298 296 294 291 286 283 280 275 270 269 271 271 270 268 266 266 266 262
163 162 163 164 164 163 163 162 162 161 159 156 153 149 146 143 141 140 138 134 131 129 126 121 115 112 115 118 114 108 110 103 91 78 69 64 58 50 39 26 15 3 351 342 336 333 331 331 330 329 327 325 324 322 321 319 318 316 314 311 309 307 306 304 302 300 298 296 295 293 291 288 286 282 277 273 272 272 271 270 269 268 267 266 265
161 159 161 163 162 161 161 160 159 158 155 152 149 146 143 141 140 139 136 132 129 127 124 122 121 122 128 130 124 118 120 116 112 112 93 62 38 26 22 10 357 349 342 335 331 329 328 328 327 326 325 324 323 322 322 321 320 319 317 315 312 309 308 307 305 303 301 299 296 294 292 292 290 286 280 277 276 273 271 269 270 269 268 268 267
160 158 159 160 160 159 157 154 153 152 148 145 143 142 140 138 137 136 133 130 130 130 128 126 128 132 136 138 140 142 143 143 147 148 106 39 3 353 348 338 335 334 329 326 327 325 324 324 325 324 324 323 322 322 322 321 322 321 319 316 313 310 308 307 305 305 306 304 302 299 297 295 292 286 282 279 276 273 272 271 271 270 269 268 266
157 155 153 154 154 153 149 147 145 142 140 138 136 135 135 135 134 133 132 130 130 133 133 132 135 140 143 146 156 166 174 179 184 208 309 317 315 320 320 318 320 320 317 317 319 318 318 321 323 322 321 320 318 317 317 316 316 315 313 312 310 309 307 306 305 305 305 304 302 300 298 295 292 287 283 280 278 276 275 273 271 270 268 266 265
150 147 146 146 145 143 141 140 138 136 134 133 132 132 133 134 133 133 133 132 132 135 138 139 144 151 154 162 182 195 207 225 241 269 298 304 307 311 315 315 313 312 311 313 315 316 318 320 320 319 318 316 314 312 310 309 309 308 308 308 308 307 305 305 304 304 303 301 301 300 298 296 293 288 284 282 281 278 274 270 268 267 265 264 262
146 144 142 140 138 136 135 135 134 134 133 132 130 131 133 135 135 136 137 137 139 142 144 149 157 165 171 187 207 219 235 254 270 284 294 301 303 304 305 307 308 311 317 322 324 326 327 326 324 323 323 323 323 321 320 318 314 311 308 307 305 304 303 302 301 300 299 298 297 297 297 296 293 289 285 283 280 277 273 269 267 265 263 261 259
143 141 138 135 132 131 130 131 132 132 132 132 132 132 135 138 139 140 141 143 147 152 157 163 175 186 197 215 230 241 255 262 268 275 281 287 293 296 300 309 317 325 334 339 340 341 340 338 337 337 336 337 338 337 335 333 329 324 318 313 308 305 303 301 300 299 297 296 296 296 295 294 292 290 287 286 282 278 275 271 268 265 263 261 258
140 138 135 134 131 130 129 131 132 132 132 135 136 138 141 144 144 146 149 153 157 165 172 180 193 207 221 234 244 253 261 267 271 276 283 292 303 313 324 333 339 344 351 355 355 354 354 352 349 346 344 343 342 341 340 339 334 330 327 324 319 312 307 304 302 301 298 297 297 297 296 295 293 291 289 287 284 279 275 272 269 267 265 262 259
138 135 134 133 132 131 132 134 135 136 139 141 142 143 147 149 150 154 159 163 169 178 185 195 210 222 229 237 246 255 261 268 273 280 292 310 324 334 342 347 348 350 355 358 356 353 351 348 343 342 340 337 335 335 334 332 330 329 329 327 323 318 315 313 309 306 303 300 298 297 296 295 293 291 289 287 283 279 276 272 270 268 265 262 258
135 133 133 133 133 133 135 138 140 142 143 145 147 149 151 154 157 162 166 172 179 188 197 206 214 222 225 229 238 248 255 263 274 286 303 321 331 334 337 341 344 343 343 342 339 338 338 335 333 332 331 329 328 328 327 326 326 328 327 327 327 327 323 317 310 305 302 299 297 296 297 296 294 291 289 286 283 281 277 273 271 268 264 260 256
132 132 132 133 133 134 137 139 140 142 145 148 151 154 156 160 165 168 172 181 186 192 199 205 209 214 218 219 227 238 243 253 269 288 303 314 319 320 322 325 327 327 326 326 327 327 328 327 325 324 324 323 322 322 322 323 325 325 325 327 329 326 320 314 310 308 307 305 301 299 299 297 294 291 288 285 283 282 278 274 272 267 262 258 254
130 130 131 132 131 133 136 138 140 144 149 153 156 159 161 165 169 173 178 184 187 190 196 199 199 200 207 216 225 236 247 261 278 290 302 307 309 310 312 314 316 317 317 318 320 322 322 322 321 320 319 319 319 321 322 321 321 322 325 326 325 321 320 321 321 317 312 307 301 297 297 296 293 289 286 285 284 282 279 276 271 265 259 255 251